DW2741 Weather Reports


time (UTC)temp
C
wind
direction
speed
KPH
gust
KPH
rain 1hr
cm
rain 24hr
cm
rain mn
cm
humidity
%
barometer
mb
20260504140108 16 244 0.0 0.0 0.00 0.00 0.00 74 1016.8
20260504090116 6 263 0.0 0.0 0.00 0.00 0.00 90 1015.8
20260504081512 6 263 0.0 0.0 0.00 0.00 0.00 88 1015.7
20260504050010 8 263 0.0 0.0 0.00 0.00 0.00 84 1016.9
20260504044527 8 263 0.0 0.0 0.00 0.00 0.00 82 1016.9
20260504043050 8 263 0.0 0.0 0.00 0.00 0.00 82 1017.0
20260504041549 8 263 0.0 0.0 0.00 0.00 0.00 82 1017.0
20260504040032 8 263 0.0 0.0 0.00 0.00 0.00 80 1017.2
20260504034536 9 263 0.0 0.0 0.00 0.00 0.00 81 1017.4
20260504033010 9 263 0.0 0.0 0.00 0.00 0.00 79 1017.4
20260504031507 10 263 0.0 0.0 0.00 0.00 0.00 79 1017.7
20260504030048 10 263 0.0 0.0 0.00 0.00 0.00 78 1017.7
20260504024547 10 263 0.0 0.0 0.00 0.00 0.00 76 1017.6
20260504023024 11 263 0.0 0.0 0.00 0.00 0.00 75 1017.4
20260504021531 11 263 0.0 0.0 0.00 0.00 0.00 75 1017.2
20260504020005 11 263 0.0 0.0 0.00 0.00 0.00 74 1017.0
20260504014603 12 263 0.0 0.0 0.00 0.00 0.00 72 1016.9
20260504013042 12 263 0.0 0.0 0.00 0.00 0.00 69 1016.6
20260504011534 13 263 0.0 0.0 0.00 0.00 0.00 67 1016.7
20260504010013 15 263 0.0 0.0 0.00 0.00 0.00 64 1016.6
20260504004511 16 263 0.0 0.0 0.00 0.00 0.00 59 1016.7
20260504003051 17 263 0.0 0.0 0.00 0.00 0.00 54 1016.6
20260504001608 18 263 0.0 0.0 0.00 0.00 0.00 48 1016.6
20260504000031 19 263 0.0 0.0 0.00 0.00 0.00 45 1016.5
20260503234533 19 273 0.0 0.0 0.00 0.00 0.00 44 1016.7
20260503233011 19 257 0.0 0.0 0.00 0.00 0.00 45 1016.7
20260503231510 20 257 0.0 6.4 0.00 0.00 0.00 44 1016.8
20260503230052 20 244 3.2 8.0 0.00 0.00 0.00 43 1016.8
20260503224551 20 269 3.2 9.7 0.00 0.00 0.00 42 1016.9
20260503223034 20 261 0.0 6.4 0.00 0.00 0.00 44 1016.9
20260503221539 20 267 0.0 6.4 0.00 0.00 0.00 43 1017.0
20260503220012 20 236 0.0 6.4 0.00 0.00 0.00 42 1017.2
20260503214513 20 276 0.0 4.8 0.00 0.00 0.00 43 1017.4
20260503213052 20 263 0.0 11.3 0.00 0.00 0.00 43 1017.4
20260503211604 20 250 0.0 12.9 0.00 0.00 0.00 44 1017.5
20260503210030 20 258 0.0 11.3 0.00 0.00 0.00 43 1017.7
20260503204528 20 253 0.0 11.3 0.00 0.00 0.00 44 1017.9
20260503203009 20 271 3.2 14.5 0.00 0.00 0.00 46 1018.1
20260503201518 19 271 0.0 14.5 0.00 0.00 0.00 45 1018.3
20260503200046 19 284 1.6 12.9 0.00 0.00 0.00 45 1018.6
20260503194548 19 257 8.0 16.1 0.00 0.00 0.00 44 1018.9
20260503193024 19 281 4.8 12.9 0.00 0.00 0.00 44 1019.2
20260503191525 18 288 0.0 11.3 0.00 0.00 0.00 47 1019.4
20260503190001 18 269 0.0 3.2 0.00 0.00 0.00 46 1019.7
20260503184600 18 232 0.0 0.0 0.00 0.00 0.00 47 1019.9
20260503183043 18 260 0.0 0.0 0.00 0.00 0.00 49 1020.0
20260503181613 18 207 0.0 0.0 0.00 0.00 0.00 53 1020.0
20260503180020 18 229 0.0 0.0 0.00 0.00 0.00 54 1020.1
20260503174520 18 293 0.0 0.0 0.00 0.00 0.00 52 1020.4
20260503173102 18 226 0.0 0.0 0.00 0.00 0.00 52 1020.5
20260503171556 17 259 0.0 0.0 0.00 0.00 0.00 53 1020.7